Location: Brno
(49.2000°N, 16.6330°E)
Time: 02:21:27
(UTC+02:00)

Vanguard 3 - Pass Details

Date: 06 August 2021
Orbit: 510 x 3260 km, 33.3° (Epoch: 16 September)

Event Time Altitude Azimuth Distance (km) Brightness Sun altitude
Rises 22:39:43 0° 272° (W) 6,440 12.3 -17.4°
Reaches altitude 10° 22:44:29 10° 263° (W) 5,725 11.8 -17.9°
Maximum altitude 22:58:53 30° 212° (SSW) 4,712 10.7 -19.1°
Enters shadow 23:08:41 20° 174° (S) 5,290 10.7 -19.9°
Drops below altitude 10° 23:13:53 10° 161° (SSE) 5,923 - -20.3°
Sets 23:19:00 0° 151° (SSE) 6,682 - -20.7°
